Slayton, MN

10:34 PM CDT on September 21, 2017 (GMT -0500)
Slayton

Weather History for KDVP - May, 2013

Change the Weather History Date:

Thursday, May 23, 2013

  Actual Average (KOTG) Record (KOTG)
Temperature  
Mean Temperature 52 °F -  
Max Temperature 63 °F 65 °F 89 °F (1972)
Min Temperature 42 °F 47 °F 37 °F (1987)
Degree Days  
Heating Degree Days 12    
Growing Degree Days 2 (Base 50)    
Moisture  
Dew Point 37 °F    
Average Humidity 62    
Maximum Humidity 95    
Minimum Humidity 23    
Precipitation  
Precipitation 0.00 in - - ()
Sea Level Pressure  
Sea Level Pressure 30.23 in    
Wind  
Wind Speed 10 mph (NNE)    
Max Wind Speed 17 mph    
Max Gust Speed 21 mph    
Visibility 10 miles    
Events      
Averages and records for this station are not official NWS values.
T = Trace of Precipitation, MM = Missing Value Source: NWS Daily Summary

Daily Weather History Graph

Daily Weather History Graph

Search for Another Location

Airport or City:

Trip Planner

Search our weather history database for the weather conditions in past years. The results will help you decide how hot, cold, wet, or windy it might be!

Date:

Astronomy

May. 23, 2013 Rise Set
Actual Time 5:49 AM CDT 8:51 PM CDT
Civil Twilight 5:14 AM CDT 9:25 PM CDT
Nautical Twilight 4:30 AM CDT 10:09 PM CDT
Astronomical Twilight 3:38 AM CDT 11:02 PM CDT
Moon 7:22 PM CDT (5/23) 4:38 AM CDT (5/23)
Length of Visible Light 16h 10m
Length of Day
15h 02m
Waxing Gibbous, 97% of the Moon is Illuminated
May 23
Waxing Gibbous
May 24
Full
May 31
Last Quarter
Jun 8
New
Jun 16
First Quarter

Hourly Weather History & Observations

Time (CDT) Temp. Windchill Dew Point Humidity Pressure Visibility Wind Dir Wind Speed Gust Speed Precip Events Conditions
12:14 AM 48.2 °F - 45.0 °F 89% 30.03 in 10.0 mi NNE 10.4 mph 17.3 mph N/A   Clear
12:34 AM 48.2 °F - 44.6 °F 87% 30.04 in 10.0 mi NNE 10.4 mph 16.1 mph N/A   Clear
12:53 AM 48.2 °F - 44.4 °F 87% 30.05 in 10.0 mi NNE 10.4 mph - N/A   Clear
1:12 AM 48.2 °F - 43.7 °F 84% 30.06 in 10.0 mi NNE 9.2 mph - N/A   Clear
1:33 AM 46.9 °F - 43.3 °F 87% 30.06 in 10.0 mi North 8.1 mph - N/A   Clear
1:52 AM 46.0 °F 41.4 °F 43.0 °F 89% 30.07 in 10.0 mi North 9.2 mph - N/A   Clear
2:14 AM 45.0 °F 40.6 °F 42.4 °F 91% 30.08 in 10.0 mi North 8.1 mph - N/A   Clear
2:33 AM 44.1 °F 39.0 °F 41.9 °F 92% 30.09 in 10.0 mi North 9.2 mph - N/A   Clear
2:53 AM 43.9 °F 39.3 °F 41.9 °F 93% 30.10 in 10.0 mi North 8.1 mph - N/A   Clear
3:13 AM 44.1 °F 39.5 °F 41.5 °F 91% 30.10 in 10.0 mi North 8.1 mph - N/A   Clear
3:33 AM 43.2 °F 38.4 °F 41.9 °F 95% 30.11 in 10.0 mi North 8.1 mph - N/A   Clear
3:53 AM 43.3 °F 38.1 °F 42.1 °F 95% 30.12 in 10.0 mi North 9.2 mph - N/A   Clear
4:13 AM 42.8 °F 38.0 °F 41.5 °F 95% 30.13 in 10.0 mi North 8.1 mph - N/A   Clear
4:33 AM 43.5 °F 37.9 °F 41.4 °F 92% 30.14 in 10.0 mi North 10.4 mph - N/A   Clear
4:54 AM 43.0 °F 38.2 °F 40.5 °F 91% 30.16 in 10.0 mi North 8.1 mph - N/A   Clear
5:13 AM 42.6 °F 36.3 °F 40.8 °F 93% 30.17 in 10.0 mi North 11.5 mph - N/A   Clear
5:33 AM 43.2 °F 37.9 °F 40.5 °F 90% 30.17 in 10.0 mi North 9.2 mph - N/A   Clear
5:53 AM 42.8 °F 37.5 °F 40.3 °F 91% 30.18 in 10.0 mi North 9.2 mph - N/A   Clear
6:13 AM 43.0 °F 38.2 °F 40.3 °F 90% 30.19 in 10.0 mi North 8.1 mph - N/A   Clear
6:33 AM 43.7 °F 38.6 °F 40.5 °F 88% 30.20 in 10.0 mi North 9.2 mph - N/A   Clear
6:54 AM 44.4 °F 39.5 °F 41.0 °F 88% 30.20 in 10.0 mi North 9.2 mph - N/A   Clear
7:13 AM 45.0 °F 41.2 °F 41.5 °F 88% 30.21 in 10.0 mi North 6.9 mph - N/A   Clear
7:33 AM 46.0 °F 40.6 °F 41.0 °F 83% 30.21 in 10.0 mi North 11.5 mph 16.1 mph N/A   Clear
7:52 AM 46.4 °F 41.1 °F 41.5 °F 83% 30.22 in 10.0 mi North 11.5 mph 16.1 mph N/A   Clear
8:13 AM 47.1 °F - 40.6 °F 78% 30.24 in 10.0 mi NNE 11.5 mph 17.3 mph N/A   Clear
8:35 AM 48.0 °F - 41.2 °F 77% 30.24 in 10.0 mi NNE 11.5 mph - N/A   Clear
8:53 AM 48.2 °F - 41.0 °F 76% 30.25 in 10.0 mi NNE 10.4 mph - N/A   Clear
9:14 AM 49.3 °F - 41.0 °F 73% 30.26 in 10.0 mi NNE 9.2 mph - N/A   Clear
9:33 AM 50.0 °F - 40.3 °F 69% 30.27 in 10.0 mi NNE 13.8 mph 17.3 mph N/A   Clear
9:54 AM 50.4 °F - 40.1 °F 68% 30.27 in 10.0 mi NNE 11.5 mph - N/A   Clear
10:13 AM 50.9 °F - 40.5 °F 67% 30.27 in 10.0 mi NNE 10.4 mph 18.4 mph N/A   Clear
10:33 AM 51.3 °F - 41.0 °F 68% 30.28 in 10.0 mi NE 11.5 mph - N/A   Clear
10:53 AM 52.3 °F - 40.8 °F 65% 30.29 in 10.0 mi North 8.1 mph - N/A   Clear
11:13 AM 53.6 °F - 41.5 °F 64% 30.29 in 10.0 mi NNE 9.2 mph - N/A   Clear
11:34 AM 54.5 °F - 41.7 °F 62% 30.29 in 10.0 mi NE 12.7 mph 17.3 mph N/A   Clear
11:53 AM 54.9 °F - 42.4 °F 63% 30.29 in 10.0 mi NE 9.2 mph 17.3 mph N/A   Clear
12:13 PM 55.6 °F - 42.3 °F 61% 30.29 in 10.0 mi NNE 10.4 mph 17.3 mph N/A   Clear
12:35 PM 56.5 °F - 42.1 °F 59% 30.29 in 10.0 mi NNE 10.4 mph - N/A   Clear
12:53 PM 57.2 °F - 42.4 °F 58% 30.29 in 10.0 mi North 13.8 mph 19.6 mph N/A   Clear
1:13 PM 57.4 °F - 42.4 °F 57% 30.29 in 10.0 mi NNE 13.8 mph 18.4 mph N/A   Clear
1:33 PM 58.8 °F - 42.1 °F 54% 30.28 in 10.0 mi North 12.7 mph 20.7 mph N/A   Clear
1:53 PM 59.5 °F - 39.7 °F 48% 30.29 in 10.0 mi NNE 10.4 mph - N/A   Clear
2:13 PM 59.9 °F - 38.5 °F 45% 30.28 in 10.0 mi NNE 12.7 mph 20.7 mph N/A   Clear
2:33 PM 60.3 °F - 37.0 °F 42% 30.28 in 10.0 mi North 17.3 mph 20.7 mph N/A   Clear
2:53 PM 60.6 °F - 35.8 °F 40% 30.28 in 10.0 mi North 13.8 mph 20.7 mph N/A   Clear
3:14 PM 61.5 °F - 33.3 °F 35% 30.28 in 10.0 mi NNE 15.0 mph 18.4 mph N/A   Clear
3:33 PM 61.9 °F - 30.6 °F 31% 30.27 in 10.0 mi NNE 12.7 mph 20.7 mph N/A   Clear
3:53 PM 62.6 °F - 30.2 °F 30% 30.27 in 10.0 mi NNE 12.7 mph 19.6 mph N/A   Clear
4:13 PM 62.6 °F - 28.4 °F 27% 30.26 in 10.0 mi NE 13.8 mph - N/A   Clear
4:33 PM 63.0 °F - 26.2 °F 25% 30.27 in 10.0 mi NE 12.7 mph 19.6 mph N/A   Clear
4:53 PM 62.6 °F - 25.7 °F 25% 30.27 in 10.0 mi ENE 13.8 mph 20.7 mph N/A   Clear
5:13 PM 63.0 °F - 26.2 °F 25% 30.27 in 10.0 mi ENE 13.8 mph 17.3 mph N/A   Clear
5:33 PM 63.1 °F - 24.1 °F 23% 30.27 in 10.0 mi ENE 13.8 mph - N/A   Clear
5:53 PM 63.3 °F - 28.4 °F 27% 30.27 in 10.0 mi NE 11.5 mph 16.1 mph N/A   Clear
6:13 PM 63.1 °F - 28.0 °F 27% 30.28 in 10.0 mi NE 8.1 mph 18.4 mph N/A   Clear
6:33 PM 62.8 °F - 27.0 °F 26% 30.28 in 10.0 mi ENE 9.2 mph - N/A   Clear
6:53 PM 62.4 °F - 26.4 °F 26% 30.27 in 10.0 mi East 9.2 mph - N/A   Clear
7:13 PM 61.7 °F - 28.8 °F 29% 30.27 in 10.0 mi ENE 12.7 mph - N/A   Clear
7:34 PM 61.0 °F - 29.1 °F 30% 30.27 in 10.0 mi East 15.0 mph 19.6 mph N/A   Clear
7:54 PM 59.9 °F - 28.6 °F 30% 30.27 in 10.0 mi East 10.4 mph - N/A   Clear
8:13 PM 58.8 °F - 29.8 °F 33% 30.27 in 10.0 mi East 10.4 mph - N/A   Clear
8:33 PM 57.6 °F - 32.0 °F 38% 30.28 in 10.0 mi East 8.1 mph - N/A   Clear
8:54 PM 55.4 °F - 33.1 °F 43% 30.28 in 10.0 mi East 8.1 mph - N/A   Clear
9:13 PM 54.0 °F - 34.0 °F 47% 30.28 in 10.0 mi East 6.9 mph - N/A   Clear
9:33 PM 52.9 °F - 34.0 °F 49% 30.29 in 10.0 mi ENE 6.9 mph - N/A   Clear
9:53 PM 52.2 °F - 33.8 °F 50% 30.30 in 10.0 mi East 6.9 mph - N/A   Clear
10:13 PM 51.1 °F - 34.5 °F 53% 30.30 in 10.0 mi ENE 6.9 mph - N/A   Clear
10:33 PM 50.4 °F - 34.5 °F 55% 30.31 in 10.0 mi ENE 6.9 mph - N/A   Clear
10:53 PM 49.8 °F - 34.5 °F 56% 30.32 in 10.0 mi ENE 5.8 mph - N/A   Clear
11:14 PM 49.1 °F - 34.9 °F 58% 30.32 in 10.0 mi ENE 6.9 mph - N/A   Clear
11:33 PM 48.9 °F - 34.9 °F 58% 30.32 in 10.0 mi East 8.1 mph - N/A   Clear
11:53 PM 48.2 °F - 34.2 °F 58% 30.32 in 10.0 mi East 8.1 mph - N/A   Clear